This is the latest recevied weather packets stored in our database for station/object K4MGY-13. If no packets are shown the sender has not sent any weather packets the latest 10 day(s).
| Time | Temp. | Humidity | Pressure | Rain* | Wind** | Luminosity | Snow |
|---|---|---|---|---|---|---|---|
| 1778073701 | 12.78° C | 96% | 1010.2 hPa | 3.05 mm | - | - | - |
| 1778073370 | 12.78° C | 96% | 1010.2 hPa | 3.05 mm | - | - | - |
| 1778073070 | 12.78° C | 96% | 1010.5 hPa | 3.05 mm | - | - | - |
| 1778072742 | 12.78° C | 96% | 1010.8 hPa | 2.79 mm | - | - | - |
| 1778072440 | 12.78° C | 95% | 1011.9 hPa | 2.54 mm | - | - | - |
| 1778072109 | 12.78° C | 95% | 1012.2 hPa | 2.03 mm | - | - | - |
| 1778071810 | 12.78° C | 95% | 1012.9 hPa | 1.27 mm | - | - | - |
| 1778071480 | 12.78° C | 94% | 1012.2 hPa | 0.51 mm | - | - | - |
| 1778071150 | 12.78° C | 94% | 1012.5 hPa | 0.51 mm | - | - | - |
| 1778070190 | 12.78° C | 95% | 1011.5 hPa | 0 mm | - | - | - |
| 1778069892 | 12.78° C | 94% | 1011.5 hPa | 0 mm | - | - | - |
| 1778069560 | 12.78° C | 94% | 1011.2 hPa | 0 mm | - | - | - |
| 1778068930 | 13.33° C | 95% | 1010.8 hPa | 0.51 mm | - | - | - |
| 1778068600 | 13.33° C | 95% | 1010.2 hPa | 0.51 mm | - | - | - |
| 1778068299 | 13.33° C | 95% | 1010.2 hPa | 0.76 mm | - | - | - |
| 1778067970 | 13.33° C | 95% | 1009.8 hPa | 1.02 mm | - | - | - |
| 1778067640 | 13.33° C | 95% | 1009.8 hPa | 1.52 mm | - | - | - |
| 1778067310 | 13.33° C | 94% | 1009.1 hPa | 1.78 mm | - | - | - |
| 1778066980 | 13.89° C | 94% | 1009.1 hPa | 2.29 mm | - | - | - |
| 1778066680 | 13.89° C | 94% | 1009.8 hPa | 2.79 mm | - | - | - |
| 1778066380 | 13.89° C | 94% | 1009.8 hPa | 3.3 mm | - | - | - |
| 1778066050 | 13.89° C | 93% | 1009.5 hPa | 3.81 mm | - | - | - |
| 1778065750 | 14.44° C | 93% | 1009.1 hPa | 3.81 mm | - | - | - |
| 1778065450 | 14.44° C | 93% | 1008.5 hPa | 3.56 mm | - | - | - |
| 1778065149 | 15° C | 93% | 1008.8 hPa | 5.08 mm | - | - | - |
* Rain latest hour (hover to see other rain measurements)
** Current wind speed in m/s (hover to see current wind gust speed)